Stündliche Wetter Cedar Rapids

Heute, 28 Oktober, Mittwoch

Zeit Temperatur Niederschläge Wind Luftdruck Luftfeuchtigkeit
00:00 -4°C° 0 mm 3 m/S 742 mmHg 60%
01:00 -4°C° 0 mm 4 m/S 742 mmHg 60%
02:00 -4°C° 0 mm 4 m/S 742 mmHg 60%
03:00 -5°C° 0 mm 5 m/S 741 mmHg 61%
04:00 -4°C° 0 mm 4 m/S 741 mmHg 62%
05:00 -4°C° 0 mm 4 m/S 741 mmHg 63%
06:00 -4°C° 0 mm 4 m/S 741 mmHg 65%
07:00 -3°C° 0 mm 4 m/S 741 mmHg 61%
08:00 -2°C° 0 mm 4 m/S 741 mmHg 57%
09:00 0°C° 0 mm 4 m/S 740 mmHg 54%
10:00 +3°C° 0 mm 3 m/S 740 mmHg 50%
11:00 +7°C° 0 mm 3 m/S 740 mmHg 45%
12:00 +9°C° 0 mm 3 m/S 739 mmHg 41%
13:00 +10°C° 0 mm 3 m/S 739 mmHg 43%
14:00 +10°C° 0 mm 3 m/S 739 mmHg 44%
15:00 +12°C° 0 mm 2 m/S 739 mmHg 46%
16:00 +9°C° 0 mm 2 m/S 739 mmHg 51%
17:00 +7°C° 0 mm 2 m/S 739 mmHg 57%
18:00 +5°C° 0 mm 2 m/S 739 mmHg 62%
19:00 +5°C° 0 mm 2 m/S 739 mmHg 68%
20:00 +3°C° 0 mm 3 m/S 739 mmHg 75%
21:00 +3°C° 0 mm 4 m/S 739 mmHg 81%
22:00 +1°C° 0 mm 4 m/S 739 mmHg 86%
23:00 +1°C° 0 mm 4 m/S 739 mmHg 90%

Morgen, 29 Oktober, Donnerstag

Zeit Temperatur Niederschläge Wind Luftdruck Luftfeuchtigkeit
00:00 0°C° 0 mm 4 m/S 739 mmHg 94%
01:00 +1°C° 0 mm 3 m/S 739 mmHg 92%
02:00 +1°C° 0 mm 3 m/S 739 mmHg 91%
03:00 0°C° 0 mm 3 m/S 739 mmHg 90%
04:00 0°C° 0 mm 3 m/S 740 mmHg 91%
05:00 -1°C° 0 mm 3 m/S 740 mmHg 92%
06:00 -2°C° 0 mm 4 m/S 740 mmHg 93%
07:00 -1°C° 0 mm 4 m/S 741 mmHg 87%
08:00 0°C° 0 mm 5 m/S 741 mmHg 80%
09:00 +1°C° 0 mm 6 m/S 741 mmHg 74%
10:00 +2°C° 0 mm 5 m/S 741 mmHg 70%
11:00 +3°C° 0 mm 5 m/S 741 mmHg 66%
12:00 +5°C° 0 mm 5 m/S 741 mmHg 62%
13:00 +5°C° 0 mm 5 m/S 741 mmHg 62%
14:00 +5°C° 0 mm 5 m/S 741 mmHg 61%
15:00 +5°C° 0 mm 4 m/S 741 mmHg 60%
16:00 +4°C° 0 mm 4 m/S 742 mmHg 65%
17:00 +2°C° 0 mm 3 m/S 742 mmHg 71%
18:00 +2°C° 0 mm 2 m/S 742 mmHg 76%
19:00 +1°C° 0 mm 2 m/S 742 mmHg 77%
20:00 +1°C° 0 mm 2 m/S 743 mmHg 79%
21:00 +1°C° 0 mm 1 m/S 743 mmHg 81%
22:00 +1°C° 0 mm 1 m/S 743 mmHg 82%
23:00 +1°C° 0 mm 1 m/S 743 mmHg 84%

übermorgen, 30 Oktober, Freitag

Zeit Temperatur Niederschläge Wind Luftdruck Luftfeuchtigkeit
00:00 0°C° 0 mm 1 m/S 743 mmHg 85%
01:00 0°C° 0 mm 1 m/S 743 mmHg 85%
02:00 0°C° 0 mm 1 m/S 744 mmHg 85%
03:00 -1°C° 0 mm 0 m/S 744 mmHg 85%
04:00 0°C° 0 mm 1 m/S 744 mmHg 84%
05:00 0°C° 0 mm 1 m/S 744 mmHg 84%
06:00 0°C° 0 mm 1 m/S 744 mmHg 84%
07:00 +1°C° 0 mm 1 m/S 744 mmHg 78%
08:00 +2°C° 0 mm 2 m/S 745 mmHg 72%
09:00 +3°C° 0 mm 2 m/S 745 mmHg 66%
10:00 +4°C° 0 mm 2 m/S 745 mmHg 61%
11:00 +6°C° 0 mm 2 m/S 744 mmHg 57%
12:00 +7°C° 0 mm 3 m/S 744 mmHg 52%
13:00 +8°C° 0 mm 3 m/S 744 mmHg 52%
14:00 +8°C° 0 mm 3 m/S 743 mmHg 51%
15:00 +9°C° 0 mm 3 m/S 743 mmHg 51%
16:00 +7°C° 0 mm 3 m/S 743 mmHg 57%
17:00 +5°C° 0 mm 3 m/S 743 mmHg 63%
18:00 +3°C° 0 mm 3 m/S 743 mmHg 68%
19:00 +3°C° 0 mm 3 m/S 743 mmHg 70%
20:00 +1°C° 0 mm 4 m/S 743 mmHg 71%
21:00 +1°C° 0 mm 4 m/S 743 mmHg 73%
22:00 +1°C° 0 mm 4 m/S 743 mmHg 72%
23:00 +1°C° 0 mm 4 m/S 743 mmHg 72%

31 Oktober, Samstag

Zeit Temperatur Niederschläge Wind Luftdruck Luftfeuchtigkeit
00:00 +1°C° 0 mm 5 m/S 743 mmHg 72%
01:00 +1°C° 0 mm 5 m/S 742 mmHg 74%
02:00 +1°C° 0 mm 5 m/S 742 mmHg 77%
03:00 +1°C° 0 mm 5 m/S 741 mmHg 79%
04:00 +1°C° 0 mm 5 m/S 741 mmHg 81%
05:00 +1°C° 0 mm 5 m/S 741 mmHg 82%
06:00 +1°C° 0 mm 6 m/S 740 mmHg 84%
07:00 +2°C° 0 mm 6 m/S 740 mmHg 81%
08:00 +4°C° 0 mm 7 m/S 739 mmHg 77%
09:00 +5°C° 0 mm 7 m/S 739 mmHg 74%
10:00 +7°C° 0 mm 8 m/S 738 mmHg 68%
11:00 +11°C° 0 mm 8 m/S 737 mmHg 62%
12:00 +13°C° 0 mm 9 m/S 737 mmHg 56%
13:00 +13°C° 0 mm 8 m/S 736 mmHg 55%
14:00 +15°C° 0 mm 8 m/S 735 mmHg 54%
15:00 +15°C° 0 mm 8 m/S 735 mmHg 53%
16:00 +15°C° 0 mm 7 m/S 735 mmHg 59%
17:00 +14°C° 0 mm 6 m/S 735 mmHg 64%
18:00 +13°C° 0 mm 5 m/S 736 mmHg 69%
19:00 +10°C° 0 mm 5 m/S 736 mmHg 71%
20:00 +9°C° 0 mm 6 m/S 737 mmHg 72%
21:00 +6°C° 0 mm 7 m/S 737 mmHg 74%
22:00 +6°C° 0 mm 7 m/S 738 mmHg 69%
23:00 +5°C° 0 mm 7 m/S 739 mmHg 64%

1 November, Sonntag

Zeit Temperatur Niederschläge Wind Luftdruck Luftfeuchtigkeit
00:00 +5°C° 0 mm 7 m/S 739 mmHg 59%
01:00 +4°C° 0 mm 6 m/S 740 mmHg 61%
02:00 +3°C° 0 mm 6 m/S 740 mmHg 62%
03:00 +2°C° 0 mm 6 m/S 741 mmHg 64%
04:00 0°C° 0 mm 7 m/S 741 mmHg 63%
05:00 -1°C° 0 mm 8 m/S 742 mmHg 63%
06:00 -2°C° 0 mm 8 m/S 743 mmHg 62%
07:00 -3°C° 0 mm 9 m/S 744 mmHg 59%
08:00 -3°C° 0 mm 10 m/S 744 mmHg 56%
09:00 -3°C° 0 mm 10 m/S 745 mmHg 53%
10:00 -2°C° 0 mm 10 m/S 746 mmHg 49%
11:00 0°C° 0 mm 10 m/S 746 mmHg 45%
12:00 +1°C° 0 mm 11 m/S 747 mmHg 41%
13:00 +1°C° 0 mm 10 m/S 747 mmHg 41%
14:00 +1°C° 0 mm 10 m/S 748 mmHg 40%
15:00 +1°C° 0 mm 10 m/S 748 mmHg 39%
16:00 0°C° 0 mm 8 m/S 749 mmHg 42%
17:00 -1°C° 0 mm 7 m/S 750 mmHg 45%
18:00 -2°C° 0 mm 6 m/S 750 mmHg 48%
19:00 -2°C° 0 mm 5 m/S 751 mmHg 52%
20:00 -4°C° 0 mm 5 m/S 751 mmHg 56%
21:00 -3°C° 0 mm 4 m/S 752 mmHg 60%
22:00 -4°C° 0 mm 4 m/S 752 mmHg 64%
23:00 -5°C° 0 mm 3 m/S 752 mmHg 68%

2 November, Montag

Zeit Temperatur Niederschläge Wind Luftdruck Luftfeuchtigkeit
00:00 -5°C° 0 mm 3 m/S 753 mmHg 71%
01:00 -5°C° 0 mm 3 m/S 753 mmHg 72%
02:00 -6°C° 0 mm 3 m/S 752 mmHg 72%
03:00 -5°C° 0 mm 2 m/S 752 mmHg 73%
04:00 -5°C° 0 mm 2 m/S 752 mmHg 72%
05:00 -5°C° 0 mm 2 m/S 752 mmHg 72%
06:00 -5°C° 0 mm 2 m/S 752 mmHg 71%
07:00 -4°C° 0 mm 3 m/S 752 mmHg 63%
08:00 -2°C° 0 mm 3 m/S 752 mmHg 55%
09:00 -1°C° 0 mm 4 m/S 751 mmHg 48%
10:00 +1°C° 0 mm 4 m/S 751 mmHg 43%
11:00 +3°C° 0 mm 5 m/S 750 mmHg 39%
12:00 +5°C° 0 mm 6 m/S 749 mmHg 34%
13:00 +7°C° 0 mm 6 m/S 748 mmHg 35%
14:00 +7°C° 0 mm 5 m/S 747 mmHg 36%
15:00 +8°C° 0 mm 5 m/S 746 mmHg 37%
16:00 +7°C° 0 mm 5 m/S 745 mmHg 42%
17:00 +5°C° 0 mm 4 m/S 745 mmHg 47%
18:00 +4°C° 0 mm 4 m/S 744 mmHg 52%
19:00 +3°C° 0 mm 4 m/S 744 mmHg 54%
20:00 +3°C° 0 mm 4 m/S 743 mmHg 56%
21:00 +3°C° 0 mm 4 m/S 742 mmHg 58%
22:00 +1°C° 0 mm 4 m/S 742 mmHg 62%
23:00 +2°C° 0 mm 3 m/S 742 mmHg 65%
Mehr zeigen